Photometre #46[NE_1.6] Lille AOT

File : 20220923_46.hum

23/09/2022,06:31:11,TEMP=10.3,BA=5.64,STAT.A=3.5,ExtBa=13.03
23/09/2022,06:35:16,TEMP=10.6,BA=5.64,STAT.A=3.0,ExtBa=13.03
23/09/2022,06:40:02,TEMP=10.7,BA=5.64,STAT.A=3.5,ExtBa=13.03
23/09/2022,06:45:43,TEMP=10.8,BA=5.56,STAT.A=3.5,ExtBa=13.03
23/09/2022,06:52:36,TEMP=10.9,BA=5.64,STAT.A=3.5,ExtBa=13.03
23/09/2022,07:01:05,TEMP=11.0,BA=5.64,STAT.A=3.5,ExtBa=13.03
23/09/2022,07:11:52,TEMP=11.3,BA=5.64,STAT.B=3.5,ExtBa=13.03
23/09/2022,07:17:03,TEMP=11.5,BA=5.64,STAT.A=3.5,ExtBa=13.03
23/09/2022,07:22:53,TEMP=11.7,BA=5.64,STAT.A=3.5,ExtBa=13.04
23/09/2022,07:29:29,TEMP=12.1,BA=5.64,STAT.A=3.5,ExtBa=13.04
23/09/2022,07:37:01,TEMP=12.4,BA=5.52,STAT.A=3.5,ExtBa=13.03
23/09/2022,07:45:43,TEMP=12.6,BA=5.64,STAT.C=3.5,ExtBa=13.04
23/09/2022,07:55:56,TEMP=12.8,BA=5.64,STAT.A=3.5,ExtBa=13.03
23/09/2022,08:08:06,TEMP=12.9,BA=5.64,STAT.A=3.5,ExtBa=13.03
23/09/2022,08:22:56,TEMP=13.5,BA=5.64,STAT.A=3.5,ExtBa=13.02
23/09/2022,08:40:33,TEMP=14.4,BA=5.64,STAT.F,ExtBa=13.00
23/09/2022,08:55:31,TEMP=15.3,BA=5.52,STAT.D=3.5,ExtBa=12.82
23/09/2022,09:10:32,TEMP=16.5,BA=5.64,STAT.D=3.5,ExtBa=13.05
23/09/2022,09:25:32,TEMP=17.3,BA=5.64,STAT.D=3.5,ExtBa=13.11
23/09/2022,09:40:33,TEMP=18.1,BA=5.64,STAT.F,ExtBa=13.11
23/09/2022,09:55:32,TEMP=18.4,BA=5.64,STAT.D=3.5,ExtBa=13.15
23/09/2022,10:10:32,TEMP=18.4,BA=5.64,STAT.D=3.5,ExtBa=13.16
23/09/2022,10:25:32,TEMP=18.1,BA=5.64,STAT.D=3.5,ExtBa=13.17
23/09/2022,10:40:33,TEMP=18.1,BA=5.64,STAT.F,ExtBa=13.16
23/09/2022,10:55:32,TEMP=18.2,BA=5.64,STAT.D=3.5,ExtBa=13.17
23/09/2022,11:10:32,TEMP=18.7,BA=5.64,STAT.D=3.5,ExtBa=13.17
23/09/2022,11:25:32,TEMP=18.9,BA=5.64,STAT.D=3.5,ExtBa=13.14
23/09/2022,11:40:33,TEMP=19.2,BA=5.64,STAT.F,ExtBa=13.10
23/09/2022,11:55:32,TEMP=19.2,BA=5.64,STAT.D=3.5,ExtBa=13.09
23/09/2022,12:10:32,TEMP=19.4,BA=5.64,STAT.D=3.5,ExtBa=13.07
23/09/2022,12:25:32,TEMP=19.6,BA=5.64,STAT.D=3.5,ExtBa=13.06
23/09/2022,12:40:33,TEMP=19.9,BA=5.64,STAT.F,ExtBa=13.04
23/09/2022,12:55:32,TEMP=19.8,BA=5.64,STAT.D=3.5,ExtBa=13.05
23/09/2022,13:10:32,TEMP=19.8,BA=5.64,STAT.D=3.5,ExtBa=13.04
23/09/2022,13:25:32,TEMP=19.6,BA=5.64,STAT.D=3.5,ExtBa=13.04
23/09/2022,13:40:30,TEMP=19.8,BA=5.64,STAT.h
23/09/2022,13:55:11,TEMP=19.8,BA=5.64,STAT.h
23/09/2022,14:10:11,TEMP=19.8,BA=5.64,STAT.h
23/09/2022,14:25:11,TEMP=19.8,BA=5.64,STAT.h
23/09/2022,14:40:11,TEMP=19.8,BA=5.64,STAT.h
23/09/2022,14:57:48,TEMP=19.8,BA=5.64,STAT.h
23/09/2022,15:12:38,TEMP=19.8,BA=5.64,STAT.h
23/09/2022,15:24:48,TEMP=19.8,BA=5.64,STAT.h
23/09/2022,15:35:23,TEMP=16.0,BA=5.64,STAT.C=3.5,ExtBa=13.02
23/09/2022,15:35:25,TEMP=16.0,BA=5.64,STAT.h
23/09/2022,15:43:43,TEMP=16.0,BA=5.64,STAT.h
23/09/2022,15:51:36,TEMP=15.8,BA=5.64,STAT.A=3.5,ExtBa=13.02
23/09/2022,15:58:11,TEMP=15.9,BA=5.64,STAT.A=3.5,ExtBa=13.02
23/09/2022,16:04:01,TEMP=16.0,BA=5.64,STAT.A=3.5,ExtBa=13.02
23/09/2022,16:09:12,TEMP=16.1,BA=5.64,STAT.B=3.5,ExtBa=13.02
23/09/2022,16:19:59,TEMP=15.9,BA=5.52,STAT.A=3.5,ExtBa=13.02
23/09/2022,16:28:07,TEMP=16.1,BA=5.52,STAT.h
23/09/2022,16:35:00,TEMP=16.1,BA=5.64,STAT.h
23/09/2022,16:40:41,TEMP=16.1,BA=5.64,STAT.h
23/09/2022,16:45:11,TEMP=16.1,BA=5.64,STAT.h
23/09/2022,16:45:27,TEMP=16.1,BA=5.64,STAT.h
23/09/2022,16:49:53,TEMP=14.6,BA=5.64,STAT.A=3.5,ExtBa=13.01
23/09/2022,16:50:05,TEMP=14.6,BA=5.52,STAT.h